Hourly Weather Russkiy Kukmor

Today, 20 April, Tuesday

Time Temperature Precipitation Wind Pressure Humidity
00:00 -1°C° 0 mm 3 mps 763 mmHg 58%
01:00 -1°C° 0 mm 3 mps 763 mmHg 57%
02:00 -2°C° 0 mm 3 mps 763 mmHg 56%
03:00 -2°C° 0 mm 3 mps 763 mmHg 60%
04:00 -2°C° 0 mm 3 mps 763 mmHg 58%
05:00 -2°C° 0 mm 4 mps 763 mmHg 56%
06:00 -2°C° 0 mm 4 mps 763 mmHg 53%
07:00 0°C° 0 mm 4 mps 763 mmHg 49%
08:00 +3°C° 0 mm 4 mps 763 mmHg 45%
09:00 +5°C° 0 mm 5 mps 763 mmHg 41%
10:00 +6°C° 0 mm 5 mps 763 mmHg 39%
11:00 +7°C° 0 mm 5 mps 763 mmHg 36%
12:00 +8°C° 0 mm 5 mps 763 mmHg 33%
13:00 +8°C° 0 mm 5 mps 762 mmHg 32%
14:00 +8°C° 0 mm 5 mps 762 mmHg 31%
15:00 +8°C° 0 mm 6 mps 762 mmHg 30%
16:00 +8°C° 0 mm 5 mps 761 mmHg 34%
17:00 +7°C° 0 mm 4 mps 761 mmHg 38%
18:00 +6°C° 0 mm 4 mps 761 mmHg 41%
19:00 +5°C° 0 mm 4 mps 761 mmHg 44%
20:00 +4°C° 0 mm 4 mps 760 mmHg 47%
21:00 +1°C° 0 mm 4 mps 760 mmHg 50%
22:00 +1°C° 0 mm 5 mps 760 mmHg 50%
23:00 +1°C° 0 mm 5 mps 759 mmHg 50%

Tomorrow, 21 April, Wednesday

Time Temperature Precipitation Wind Pressure Humidity
00:00 +1°C° 0 mm 5 mps 759 mmHg 51%
01:00 +1°C° 0 mm 5 mps 759 mmHg 50%
02:00 +1°C° 0 mm 6 mps 758 mmHg 50%
03:00 +1°C° 0 mm 6 mps 758 mmHg 49%
04:00 +1°C° 0 mm 6 mps 758 mmHg 49%
05:00 0°C° 0 mm 7 mps 757 mmHg 49%
06:00 0°C° 0 mm 7 mps 757 mmHg 49%
07:00 +1°C° 0 mm 8 mps 756 mmHg 48%
08:00 +2°C° 0 mm 8 mps 756 mmHg 47%
09:00 +4°C° 0 mm 8 mps 756 mmHg 47%
10:00 +1°C° 0.6 mm 8 mps 756 mmHg 58%
11:00 0°C° 0.6 mm 8 mps 755 mmHg 70%
12:00 -1°C° 0.6 mm 8 mps 755 mmHg 82%
13:00 -1°C° 1.5 mm 8 mps 755 mmHg 85%
14:00 -1°C° 1.5 mm 8 mps 755 mmHg 89%
15:00 -1°C° 1.5 mm 8 mps 755 mmHg 92%
16:00 -1°C° 0.7 mm 8 mps 754 mmHg 93%
17:00 -1°C° 0.7 mm 8 mps 754 mmHg 94%
18:00 -1°C° 0.7 mm 7 mps 754 mmHg 95%
19:00 -1°C° 0.2 mm 7 mps 754 mmHg 95%
20:00 -1°C° 0.2 mm 7 mps 753 mmHg 95%
21:00 -1°C° 0.2 mm 7 mps 753 mmHg 94%
22:00 -1°C° 0.1 mm 7 mps 753 mmHg 94%
23:00 -1°C° 0.1 mm 6 mps 753 mmHg 95%

Day after tomorrow, 22 April, Thursday

Time Temperature Precipitation Wind Pressure Humidity
00:00 -1°C° 0.1 mm 6 mps 753 mmHg 95%
01:00 -1°C° 0 mm 6 mps 753 mmHg 95%
02:00 +1°C° 0 mm 6 mps 754 mmHg 96%
03:00 +1°C° 0 mm 5 mps 754 mmHg 96%
04:00 +1°C° 0 mm 5 mps 754 mmHg 96%
05:00 +1°C° 0 mm 5 mps 754 mmHg 97%
06:00 +1°C° 0 mm 4 mps 755 mmHg 97%
07:00 +3°C° 0 mm 4 mps 755 mmHg 96%
08:00 +3°C° 0 mm 4 mps 755 mmHg 95%
09:00 +3°C° 0 mm 4 mps 755 mmHg 95%
10:00 +4°C° 0 mm 4 mps 755 mmHg 93%
11:00 +5°C° 0 mm 5 mps 755 mmHg 91%
12:00 +6°C° 0 mm 5 mps 755 mmHg 89%
13:00 +7°C° 0.1 mm 5 mps 755 mmHg 88%
14:00 +7°C° 0.1 mm 4 mps 755 mmHg 87%
15:00 +7°C° 0.1 mm 4 mps 755 mmHg 86%
16:00 +7°C° 0.4 mm 4 mps 755 mmHg 87%
17:00 +7°C° 0.4 mm 4 mps 755 mmHg 88%
18:00 +7°C° 0.4 mm 4 mps 755 mmHg 89%
19:00 +7°C° 0.1 mm 4 mps 756 mmHg 91%
20:00 +6°C° 0.1 mm 4 mps 756 mmHg 93%
21:00 +5°C° 0.1 mm 3 mps 756 mmHg 95%
22:00 +5°C° 0.1 mm 3 mps 756 mmHg 96%
23:00 +6°C° 0.1 mm 2 mps 756 mmHg 97%

23 April, Friday

Time Temperature Precipitation Wind Pressure Humidity
00:00 +6°C° 0.1 mm 2 mps 756 mmHg 97%
01:00 +6°C° 0.1 mm 2 mps 756 mmHg 97%
02:00 +6°C° 0.1 mm 2 mps 756 mmHg 97%
03:00 +5°C° 0.1 mm 2 mps 756 mmHg 97%
04:00 +6°C° 0 mm 1 mps 757 mmHg 95%
05:00 +6°C° 0 mm 1 mps 757 mmHg 93%
06:00 +7°C° 0 mm 1 mps 757 mmHg 92%
07:00 +8°C° 0 mm 1 mps 757 mmHg 85%
08:00 +9°C° 0 mm 2 mps 757 mmHg 77%
09:00 +10°C° 0 mm 2 mps 758 mmHg 70%
10:00 +12°C° 0 mm 2 mps 757 mmHg 66%
11:00 +13°C° 0 mm 2 mps 757 mmHg 61%
12:00 +14°C° 0 mm 2 mps 757 mmHg 57%
13:00 +14°C° 0.1 mm 2 mps 757 mmHg 56%
14:00 +15°C° 0.1 mm 2 mps 757 mmHg 55%
15:00 +15°C° 0.1 mm 2 mps 757 mmHg 55%
16:00 +14°C° 0.1 mm 2 mps 757 mmHg 61%
17:00 +13°C° 0.1 mm 2 mps 756 mmHg 67%
18:00 +13°C° 0.1 mm 2 mps 756 mmHg 73%
19:00 +10°C° 0 mm 2 mps 756 mmHg 78%
20:00 +9°C° 0 mm 3 mps 756 mmHg 83%
21:00 +8°C° 0 mm 3 mps 756 mmHg 88%
22:00 +7°C° 0 mm 3 mps 756 mmHg 89%
23:00 +7°C° 0 mm 3 mps 756 mmHg 91%

24 April, Saturday

Time Temperature Precipitation Wind Pressure Humidity
00:00 +5°C° 0 mm 3 mps 756 mmHg 92%
01:00 +5°C° 0 mm 3 mps 755 mmHg 92%
02:00 +5°C° 0 mm 3 mps 755 mmHg 92%
03:00 +4°C° 0 mm 3 mps 755 mmHg 93%
04:00 +5°C° 0 mm 3 mps 755 mmHg 91%
05:00 +5°C° 0 mm 3 mps 755 mmHg 89%
06:00 +5°C° 0 mm 3 mps 755 mmHg 88%
07:00 +7°C° 0 mm 3 mps 754 mmHg 83%
08:00 +8°C° 0 mm 3 mps 754 mmHg 78%
09:00 +9°C° 0 mm 3 mps 754 mmHg 73%
10:00 +10°C° 0 mm 3 mps 754 mmHg 68%
11:00 +11°C° 0 mm 3 mps 753 mmHg 62%
12:00 +12°C° 0 mm 3 mps 753 mmHg 57%
13:00 +12°C° 0 mm 3 mps 752 mmHg 55%
14:00 +12°C° 0 mm 4 mps 752 mmHg 53%
15:00 +12°C° 0 mm 4 mps 751 mmHg 50%
16:00 +11°C° 0 mm 4 mps 751 mmHg 56%
17:00 +10°C° 0 mm 4 mps 751 mmHg 61%
18:00 +8°C° 0 mm 4 mps 751 mmHg 66%
19:00 +8°C° 0 mm 3 mps 751 mmHg 72%
20:00 +7°C° 0 mm 3 mps 750 mmHg 77%
21:00 +6°C° 0 mm 2 mps 750 mmHg 83%
22:00 +6°C° 0 mm 2 mps 750 mmHg 85%
23:00 +6°C° 0 mm 2 mps 749 mmHg 87%

25 April, Sunday

Time Temperature Precipitation Wind Pressure Humidity
00:00 +5°C° 0 mm 2 mps 749 mmHg 89%
01:00 +5°C° 0 mm 2 mps 748 mmHg 90%
02:00 +5°C° 0 mm 2 mps 748 mmHg 91%
03:00 +5°C° 0 mm 2 mps 748 mmHg 92%
04:00 +5°C° 0 mm 3 mps 747 mmHg 91%
05:00 +5°C° 0 mm 3 mps 747 mmHg 90%
06:00 +5°C° 0 mm 3 mps 747 mmHg 89%
07:00 +7°C° 0 mm 3 mps 746 mmHg 85%
08:00 +8°C° 0 mm 3 mps 746 mmHg 81%
09:00 +8°C° 0 mm 3 mps 746 mmHg 76%
10:00 +9°C° 0 mm 3 mps 746 mmHg 73%
11:00 +9°C° 0 mm 3 mps 746 mmHg 69%
12:00 +10°C° 0 mm 2 mps 746 mmHg 65%
13:00 +9°C° 0.1 mm 2 mps 746 mmHg 69%
14:00 +9°C° 0.1 mm 2 mps 746 mmHg 72%
15:00 +9°C° 0.1 mm 2 mps 747 mmHg 75%
16:00 +7°C° 0.8 mm 3 mps 747 mmHg 82%
17:00 +4°C° 0.8 mm 3 mps 748 mmHg 88%
18:00 +1°C° 0.8 mm 4 mps 749 mmHg 95%
19:00 +1°C° 0.8 mm 4 mps 749 mmHg 94%
20:00 +1°C° 0.9 mm 4 mps 750 mmHg 94%
21:00 +2°C° 0.9 mm 3 mps 750 mmHg 94%
22:00 +1°C° 0 mm 3 mps 751 mmHg 95%
23:00 +2°C° 0 mm 2 mps 751 mmHg 95%
Show more